TimeCDT,TemperatureF,Dew PointF,Humidity,Sea Level PressureIn,VisibilityMPH,Wind Direction,Wind SpeedMPH,Gust SpeedMPH,PrecipitationIn,Events,Conditions,WindDirDegrees,DateUTC
12:55 AM,53.1,48.9,86,29.93,10.0,ESE,8.1,-,N/A,,Clear,120,2012-09-16 05:55:00
1:55 AM,52.0,48.0,86,29.92,10.0,ESE,8.1,-,N/A,,Clear,120,2012-09-16 06:55:00
2:55 AM,52.0,48.0,86,29.91,10.0,SE,5.8,-,N/A,,Clear,140,2012-09-16 07:55:00
3:55 AM,55.0,46.9,74,29.89,10.0,SSE,4.6,-,N/A,,Clear,160,2012-09-16 08:55:00
4:55 AM,54.0,46.0,75,29.88,10.0,SSW,5.8,-,N/A,,Clear,200,2012-09-16 09:55:00
5:55 AM,57.0,46.0,67,29.87,10.0,SSW,8.1,-,N/A,,Clear,210,2012-09-16 10:55:00
6:55 AM,55.0,46.0,72,29.88,10.0,SW,8.1,-,N/A,,Clear,220,2012-09-16 11:55:00
7:55 AM,55.9,46.0,69,29.89,10.0,SW,5.8,-,N/A,,Clear,230,2012-09-16 12:55:00
8:55 AM,60.1,48.0,64,29.89,10.0,WSW,9.2,-,N/A,,Clear,250,2012-09-16 13:55:00
9:55 AM,64.0,46.9,54,29.90,10.0,NW,8.1,-,N/A,,Clear,310,2012-09-16 14:55:00
10:55 AM,66.0,48.0,52,29.90,10.0,North,9.2,-,N/A,,Clear,360,2012-09-16 15:55:00
11:55 AM,72.0,48.9,44,29.89,10.0,NNW,9.2,-,N/A,,Clear,340,2012-09-16 16:55:00
12:55 PM,73.9,48.0,40,29.88,10.0,North,5.8,-,N/A,,Clear,350,2012-09-16 17:55:00
1:55 PM,77.0,46.9,34,29.87,10.0,WNW,11.5,-,N/A,,Clear,300,2012-09-16 18:55:00
2:55 PM,77.0,46.9,34,29.86,10.0,NNW,9.2,17.3,N/A,,Clear,330,2012-09-16 19:55:00
3:55 PM,75.9,44.1,32,29.86,10.0,NW,11.5,-,N/A,,Clear,320,2012-09-16 20:55:00
4:55 PM,75.0,39.9,28,29.87,10.0,WNW,11.5,-,N/A,,Clear,300,2012-09-16 21:55:00
5:55 PM,71.1,37.0,29,29.88,10.0,NW,10.4,18.4,N/A,,Clear,320,2012-09-16 22:55:00
6:55 PM,68.0,37.9,33,29.92,10.0,NW,11.5,-,N/A,,Partly Cloudy,320,2012-09-16 23:55:00
7:55 PM,64.9,39.9,40,29.93,10.0,NNW,6.9,-,N/A,,Overcast,330,2012-09-17 00:55:00
8:55 PM,63.0,43.0,48,29.93,10.0,NW,11.5,-,N/A,,Overcast,320,2012-09-17 01:55:00
9:55 PM,57.0,48.0,72,29.96,10.0,NW,11.5,-,0.00,Rain,Light Rain,310,2012-09-17 02:55:00
10:55 PM,54.0,48.0,80,29.97,10.0,NW,10.4,-,0.03,Rain,Light Rain,310,2012-09-17 03:55:00
11:55 PM,52.0,46.9,83,29.96,10.0,NW,12.7,19.6,0.04,Rain,Light Rain,320,2012-09-17 04:55:00